Regional Weather Roundup
Issued by NWS Charleston, SC

Current Version | Previous Version | Graphics & Text | Print | Product List | Glossary On
Versions: 1 2 3 4 5 6 7 8 9 10 11 12 13 14 15 16 17 18 19 20 21 22 23 24 25 26 27 28 29 30 31 32 33 34 35 36 37 38 39 40 41 42 43 44 45 46 47 48 49 50
000 ASUS42 KCHS 050212 RWRCHS REGIONAL WEATHER ROUNDUP NATIONAL WEATHER SERVICE CHARLESTON SC 1000 PM EDT TUE AUG 04 2015 NOTE: "FAIR" INDICATES FEW OR NO CLOUDS BELOW 12,000 FEET WITH NO SIGNIFICANT WEATHER AND/OR OBSTRUCTIONS TO VISIBILITY. NOT ALL STATIONS ARE QUALITY CONTROLLED BY THE NATIONAL WEATHER SERVICE. USE DATA WITH CAUTION...ESPECIALLY DEWPOINT OBSERVATIONS. SCZ027-030-031-034>040-042>050-050300- ...SOUTHEAST SOUTH CAROLINA... CITY SKY/WX TMP DP RH WIND PRES REMARKS N CHARLESTON PTCLDY 78 77 96 S8 29.98R WATERFRONT PRK N/A 83 79 87 SW9 29.95R HX 94 MOUNT PLEASANT FAIR 82 79 89 S7 29.98R HX 93 JOHNS ISLAND FAIR 82 79 89 S9 29.99R HX 93 PINOPOLIS NOT AVBL MONCKS CORNER FAIR 82 77 83 SW5 29.97R HX 91 SUMMERVILLE FAIR 81 79 94 CALM 29.98S BEAUFORT MCAS PTCLDY 83 78 85 S6 29.98R HX 93 BEAUFORT ARPT FAIR 82 81 94 S5 29.98S HX 95 HILTON HEAD IS PTCLDY 82 81 94 S6 30.00R HX 95 WALTERBORO NOT AVBL ALLENDALE FAIR 84 73 70 CALM 29.97R HX 91 ...SOUTHERN MIDLANDS AND PEE DEE... CITY SKY/WX TMP DP RH WIND PRES REMARKS GEORGETOWN NOT AVBL KINGSTREE NOT AVBL ORANGEBURG CLEAR 84 72 67 S3 29.97R BARNWELL FAIR 84 75 74 CALM 29.98R HX 92 AIKEN FAIR 84 61 45 SW6 30.01R MANNING RAIN 82 75 78 S3 29.96R COLUMBIA PTCLDY 88 70 55 S6 29.94R HX 93 SUMTER CLEAR 85 71 62 SW3 29.94R FLORENCE CLEAR 85 75 72 S7 29.95R HX 93 MYRTLE BEACH CLEAR 82 75 78 W3 29.98R N MYRTLE BEACH CLEAR 83 78 85 SW10 29.96R HX 93 $$ GAZ063-065-086>088-099>101-113>116-118-119-134>141-150-050300- ...SOUTHEAST GEORGIA... CITY SKY/WX TMP DP RH WIND PRES REMARKS SAVANNAH ARPT PTCLDY 82 74 76 SW5 30.00R HUNTER AAF PTCLDY 81 76 84 SW8 29.98R FORT STEWART PTCLDY 81 63 54 S2 30.00R STATESBORO CLEAR 83 75 77 SW7 30.00R SYLVANIA CLEAR 85 76 73 SW5 30.01R HX 94 CLAXTON NOT AVBL ...CSRA...CENTRAL AND FAR SOUTHEAST GEORGIA... CITY SKY/WX TMP DP RH WIND PRES REMARKS THOMSON CLEAR 83 76 80 CALM 30.02R HX 91 AUGUSTA-BUSH CLEAR 78 70 76 SW6 29.95R AUGUSTA-DANIEL CLEAR 88 66 48 SW3 29.97R HX 90 SWAINSBORO CLOUDY 86 73 66 S5 30.02R HX 93 VIDALIA CLEAR 81 72 74 SW6 30.02R EASTMAN FAIR 80 72 77 CALM 30.03R HAZLEHURST FAIR 80 74 82 S5 30.01R ALMA MOCLDY 77 74 90 S7 30.02R WAYCROSS MOCLDY 78 76 94 SW5 30.02S JESUP FAIR 79 73 83 W5 30.03R BAXLEY FAIR 79 73 83 CALM 30.01S BRUNSWICK MOCLDY 77 72 83 SW3 30.03R SAINT SIMONS MOCLDY 78 72 81 SW7 30.01R $$ SCZ027-028-034-036>038-045-046-048>050-GAZ119-141-050300- ...LAKE AND SUPPLEMENTAL COASTAL OBSERVATIONS... STATION/POSITION TIME TEMP WIND PRES WAVE SWELL AIR SEA DIR/SP/G HT/PER HT/PER/DIR (UTC) (F) (DEG/KT/KT) (MB) (FT/S) (FT/S/D) UPR LAKE MARION NOT AVBL WINYAH BAY 0045 82 220/ 10 1013.0 LAKE MURRAY 0100 92 220/ 6/ 7 1013.2R ACE BASIN NERRS NOT AVBL FORT PULASKI 0100 84 85 200/ 7/ 12 1015.7R SAPELO ISLAND 0100 80 250/ 6 1016.0R $$ ANZ835-935-AMZ111-154-330-350-352-354-370-450-454-472-050300- ...C-MAN AND BUOY OBSERVATIONS... STATION/POSITION TIME TEMP WIND PRES WAVE SWELL AIR SEA DIR/SP/G HT/PER HT/PER/DIR (UTC) (F) (DEG/KT/KT) (MB) (FT/S) (FT/S/D) BUOY 41004 0150 82 83 210/ 14/ 17 1014.9R 4/ 6 2/11 BUOY 41008 0150 81 83 240/ 10/ 12 1016.3R 3/ 5 2/150/ 5 FOLLY BEACH CMAN 0100 82 210/ 15/ 17 1015.1R CAPERS NEARSHORE 0108 83 220/ 16/ 21 1015.1R FRIPP NEARSHORE 0100 84 220/ 14/ 17 1014.9R STATION/POSITION TIME TEMP WIND PRES WAVE SWELL AIR SEA DIR/SP/G HT/PER HT/PER/DIR (UTC) (F) (DEG/KT/KT) (MB) (FT/S) (FT/S/D) 5E ST. MARYS GA 0121 82 N/A 2/ 7 FRYING PAN BUOY 0150 83 81 220/ 17/ 21 1015.2R 6/ 8 3/190/ 8 BUOY 41025 0150 81 84 170/ 14/ 17 1015.5F 5/ 7 2/200/ 8 CAPE LOOKOUT NC 0100 81 200/ 17/ 22 1014.1R BUOY 41002 0150 82 81 210/ 16/ 17 1019.0R 6/ 7 2/ 60/11 BUOY 41010 0120 84 84 190/ 10/ 12 1018.6R ST AUGUSTINE FL 0200 78 77 200/ 6/ 8 1017.9R $$

USA.gov is the U.S. government's official web portal to all federal, state and local government web resources and services.